RYR78J EDFH-LICR

Flight info

Callsign RYR78J
Flight time N/A
Altitude 35000
Route ULKIG2S/21 ULKIG Y180 DONAB Z114 ODAVU Y163 BADLI/N0450F370 Y163 PABLA Z721 UTABA DCT BEMKI DCT ELMEM DCT GIRIS DCT DIKEM DCT VIC DCT LOBSI DCT TEA DCT SOR DCT PIGER/N0373F180 L869 PEROS
Aircraft B738/M-SDE2E3FGHIRWXY/LB1

Departure

Time N/A
Airport Frankfurt-Hahn Airport (EDFH)

Arrival

Time 2026-04-15 10:54
Airport Reggio Calabria Airport (LICR)
Time Latitude Longitude Altitude Speed Heading
2026-04-15 08:59 49.32064 8.48048 31045 ft 475 kts 186°
2026-04-15 09:00 49.28717 8.47616 31349 ft 478 kts 186°
2026-04-15 09:00 49.25429 8.47196 31645 ft 481 kts 185°
2026-04-15 09:00 49.22080 8.46772 31927 ft 484 kts 185°
2026-04-15 09:00 49.18713 8.46348 32202 ft 487 kts 185°
2026-04-15 09:01 49.15318 8.45921 32460 ft 491 kts 185°
2026-04-15 09:01 49.11903 8.45491 32716 ft 494 kts 185°
2026-04-15 09:01 49.08471 8.45056 32930 ft 497 kts 186°
2026-04-15 09:01 49.05028 8.44320 33164 ft 499 kts 192°
2026-04-15 09:02 49.01620 8.43209 33408 ft 501 kts 195°
2026-04-15 09:02 48.98221 8.41962 33640 ft 504 kts 195°
2026-04-15 09:02 48.94796 8.40740 33866 ft 507 kts 195°
2026-04-15 09:02 48.91346 8.39529 34038 ft 511 kts 195°
2026-04-15 09:03 48.87870 8.38386 34307 ft 513 kts 190°
2026-04-15 09:03 48.84304 8.38167 34617 ft 513 kts 175°
2026-04-15 09:03 48.80819 8.39189 35001 ft 508 kts 161°
2026-04-15 09:03 48.77605 8.41338 35231 ft 504 kts 147°
2026-04-15 09:04 48.74846 8.44438 35277 ft 497 kts 133°
2026-04-15 09:04 48.72486 8.48218 35287 ft 491 kts 125°
2026-04-15 09:04 48.68525 8.56495 35283 ft 481 kts 118°
2026-04-15 09:05 48.64716 8.64830 35313 ft 480 kts 120°
2026-04-15 09:05 48.62781 8.68934 35535 ft 480 kts 120°
2026-04-15 09:05 48.60830 8.73034 35734 ft 481 kts 120°
2026-04-15 09:06 48.58868 8.77140 35959 ft 481 kts 120°
2026-04-15 09:06 48.56936 8.81254 36244 ft 479 kts 120°
2026-04-15 09:06 48.55047 8.85255 36518 ft 478 kts 121°
2026-04-15 09:06 48.53131 8.89278 36714 ft 478 kts 121°
2026-04-15 09:07 48.51181 8.93348 36945 ft 478 kts 121°
2026-04-15 09:07 48.49236 8.97394 37234 ft 476 kts 121°
2026-04-15 09:07 48.45324 9.05501 37255 ft 478 kts 122°
2026-04-15 09:08 48.41453 9.13597 37261 ft 474 kts 122°
2026-04-15 09:08 48.37562 9.21604 37262 ft 474 kts 122°
2026-04-15 09:09 48.33679 9.29538 37262 ft 473 kts 122°
2026-04-15 09:09 48.29774 9.37496 37262 ft 472 kts 122°
2026-04-15 09:10 48.25713 9.45270 37262 ft 474 kts 129°
2026-04-15 09:10 48.20870 9.52022 37263 ft 477 kts 137°
2026-04-15 09:11 48.15707 9.58269 37260 ft 476 kts 138°
2026-04-15 09:11 48.10583 9.64490 37260 ft 478 kts 138°
2026-04-15 09:12 48.05425 9.70763 37260 ft 478 kts 138°
2026-04-15 09:12 48.00262 9.77036 37260 ft 477 kts 138°
2026-04-15 09:13 47.95144 9.83318 37258 ft 476 kts 137°
2026-04-15 09:13 47.90009 9.89587 37257 ft 477 kts 138°
2026-04-15 09:14 47.84861 9.95828 37258 ft 477 kts 138°
2026-04-15 09:14 47.80581 10.01008 37258 ft 477 kts 137°
2026-04-15 09:15 47.75452 10.07243 37259 ft 476 kts 138°
2026-04-15 09:15 47.70290 10.13435 37258 ft 476 kts 138°
2026-04-15 09:16 47.65131 10.19598 37258 ft 475 kts 139°
2026-04-15 09:16 47.59981 10.25736 37254 ft 475 kts 139°
2026-04-15 09:17 47.54816 10.31767 37248 ft 476 kts 142°
2026-04-15 09:17 47.49290 10.37189 37246 ft 476 kts 145°
2026-04-15 09:18 47.43719 10.42510 37240 ft 475 kts 144°
2026-04-15 09:18 47.38185 10.47850 37238 ft 474 kts 144°
2026-04-15 09:19 47.32661 10.53181 37241 ft 474 kts 144°
2026-04-15 09:19 47.26962 10.58065 37243 ft 475 kts 153°
2026-04-15 09:20 47.20910 10.61856 37235 ft 476 kts 156°
2026-04-15 09:20 47.14795 10.65559 37231 ft 475 kts 156°
2026-04-15 09:21 47.08681 10.69278 37237 ft 475 kts 156°
2026-04-15 09:21 47.02593 10.73030 37235 ft 474 kts 156°
2026-04-15 09:22 46.96503 10.76742 37233 ft 473 kts 156°
2026-04-15 09:22 46.90414 10.80428 37232 ft 472 kts 156°
2026-04-15 09:23 46.84380 10.84071 37231 ft 472 kts 156°
2026-04-15 09:23 46.78308 10.87730 37228 ft 471 kts 156°
2026-04-15 09:24 46.72340 10.91695 37226 ft 471 kts 152°
2026-04-15 09:24 46.66479 10.95960 37221 ft 470 kts 152°
2026-04-15 09:25 46.60603 11.00158 37216 ft 470 kts 153°
2026-04-15 09:25 46.54722 11.04323 37211 ft 469 kts 153°
2026-04-15 09:26 46.48847 11.08468 37206 ft 468 kts 153°
2026-04-15 09:26 46.43057 11.12575 37204 ft 468 kts 153°
2026-04-15 09:27 46.37190 11.16724 37204 ft 467 kts 153°
2026-04-15 09:27 46.31346 11.20850 37205 ft 466 kts 153°
2026-04-15 09:28 46.25513 11.24951 37203 ft 466 kts 153°
2026-04-15 09:28 46.19673 11.29022 37199 ft 465 kts 154°
2026-04-15 09:29 46.13851 11.33067 37200 ft 464 kts 154°
2026-04-15 09:29 46.08078 11.37072 37207 ft 463 kts 154°
2026-04-15 09:30 46.02264 11.41101 37206 ft 463 kts 154°
2026-04-15 09:30 45.96457 11.45106 37205 ft 461 kts 154°
2026-04-15 09:31 45.90684 11.49108 37203 ft 461 kts 154°
2026-04-15 09:31 45.84899 11.53110 37199 ft 461 kts 154°
2026-04-15 09:32 45.79118 11.57074 37194 ft 460 kts 154°
2026-04-15 09:32 45.73337 11.61025 37190 ft 460 kts 154°
2026-04-15 09:33 45.67595 11.64943 37185 ft 460 kts 154°
2026-04-15 09:33 45.61818 11.68891 37176 ft 460 kts 154°
2026-04-15 09:34 45.56038 11.72853 37172 ft 460 kts 154°
2026-04-15 09:34 45.50270 11.76797 37172 ft 460 kts 154°
2026-04-15 09:35 45.44494 11.80738 37173 ft 460 kts 154°
2026-04-15 09:35 45.38714 11.84673 37171 ft 460 kts 154°
2026-04-15 09:36 45.32972 11.88576 37171 ft 460 kts 154°
2026-04-15 09:36 45.27210 11.92529 37171 ft 460 kts 154°
2026-04-15 09:37 45.21437 11.96457 37170 ft 459 kts 154°
2026-04-15 09:37 45.15667 12.00393 37169 ft 460 kts 154°
2026-04-15 09:38 45.09892 12.04295 37168 ft 458 kts 155°
2026-04-15 09:38 45.04190 12.08127 37166 ft 456 kts 155°
2026-04-15 09:39 44.98462 12.11968 37161 ft 456 kts 155°
2026-04-15 09:39 44.92741 12.15798 37158 ft 455 kts 155°
2026-04-15 09:40 44.86941 12.19358 37155 ft 454 kts 159°
2026-04-15 09:40 44.80998 12.22423 37151 ft 454 kts 160°
2026-04-15 09:41 44.75066 12.25487 37149 ft 454 kts 160°
2026-04-15 09:41 44.69139 12.28575 37146 ft 454 kts 160°
2026-04-15 09:42 44.63248 12.31651 37144 ft 454 kts 160°
2026-04-15 09:42 44.57312 12.34760 37143 ft 454 kts 159°
2026-04-15 09:43 44.51393 12.37888 37142 ft 454 kts 160°
2026-04-15 09:43 44.45473 12.40995 37142 ft 454 kts 160°
2026-04-15 09:44 44.39590 12.44069 37146 ft 454 kts 160°
2026-04-15 09:44 44.33660 12.47159 37152 ft 454 kts 160°
2026-04-15 09:45 44.27746 12.50232 37157 ft 453 kts 160°
2026-04-15 09:45 44.21833 12.53298 37158 ft 453 kts 160°
2026-04-15 09:46 44.15919 12.56357 37153 ft 453 kts 160°
2026-04-15 09:46 44.10007 12.59409 37146 ft 453 kts 160°
2026-04-15 09:47 44.04095 12.62454 37142 ft 453 kts 160°
2026-04-15 09:47 43.98181 12.65494 37141 ft 452 kts 160°
2026-04-15 09:48 43.92290 12.68515 37139 ft 451 kts 160°
2026-04-15 09:48 43.86405 12.71527 37135 ft 451 kts 160°
2026-04-15 09:49 43.80528 12.74529 37130 ft 450 kts 160°
2026-04-15 09:49 43.74676 12.77511 37124 ft 450 kts 160°
2026-04-15 09:50 43.68801 12.80499 37119 ft 449 kts 160°
2026-04-15 09:50 43.62936 12.83476 37115 ft 448 kts 160°
2026-04-15 09:51 43.57074 12.86445 37113 ft 448 kts 160°
2026-04-15 09:51 43.51221 12.89403 37113 ft 448 kts 160°
2026-04-15 09:52 43.45371 12.92353 37108 ft 448 kts 160°
2026-04-15 09:52 43.39520 12.95299 37105 ft 447 kts 160°
2026-04-15 09:53 43.33682 12.98231 37101 ft 447 kts 160°
2026-04-15 09:53 43.27849 13.01155 37097 ft 446 kts 161°
2026-04-15 09:54 43.22020 13.04071 37094 ft 446 kts 161°
2026-04-15 09:54 43.16221 13.06966 37090 ft 446 kts 161°
2026-04-15 09:55 43.10387 13.09873 37088 ft 446 kts 161°
2026-04-15 09:55 43.04565 13.12767 37089 ft 445 kts 161°
2026-04-15 09:56 42.98735 13.15661 37076 ft 445 kts 161°
2026-04-15 09:57 42.90003 13.19982 37061 ft 444 kts 161°
2026-04-15 09:57 42.84186 13.22855 37059 ft 445 kts 161°
2026-04-15 09:58 42.78363 13.25724 37056 ft 444 kts 161°
2026-04-15 09:58 42.72552 13.28581 37054 ft 444 kts 161°
2026-04-15 09:59 42.67714 13.30956 37052 ft 444 kts 161°
2026-04-15 09:59 42.60950 13.34269 37050 ft 444 kts 161°
2026-04-15 10:00 42.56086 13.36647 37049 ft 443 kts 161°
2026-04-15 10:00 42.50276 13.39483 37042 ft 443 kts 161°
2026-04-15 10:01 42.44474 13.42309 37041 ft 443 kts 161°
2026-04-15 10:01 42.38705 13.45113 37042 ft 443 kts 161°
2026-04-15 10:02 42.34021 13.47386 37038 ft 442 kts 161°
2026-04-15 10:02 42.28218 13.50197 37036 ft 443 kts 161°
2026-04-15 10:03 42.22411 13.53003 37032 ft 443 kts 161°
2026-04-15 10:03 42.16608 13.55804 37027 ft 442 kts 161°
2026-04-15 10:04 42.10817 13.58592 37022 ft 442 kts 161°
2026-04-15 10:04 42.05022 13.61377 37016 ft 442 kts 161°
2026-04-15 10:05 41.99227 13.64157 37009 ft 442 kts 162°
2026-04-15 10:05 41.93440 13.66928 36997 ft 441 kts 162°
2026-04-15 10:06 41.87687 13.69677 36990 ft 441 kts 162°
2026-04-15 10:06 41.81903 13.72435 36986 ft 441 kts 162°
2026-04-15 10:07 41.76111 13.75192 36983 ft 441 kts 162°
2026-04-15 10:07 41.70324 13.77942 36982 ft 441 kts 162°
2026-04-15 10:08 41.64536 13.80687 36979 ft 441 kts 162°
2026-04-15 10:08 41.58744 13.83438 36977 ft 442 kts 161°
2026-04-15 10:09 41.52940 13.86190 36976 ft 442 kts 162°
2026-04-15 10:09 41.47147 13.88917 36976 ft 441 kts 162°
2026-04-15 10:10 41.41352 13.91639 36974 ft 441 kts 162°
2026-04-15 10:10 41.35562 13.94353 36972 ft 441 kts 161°
2026-04-15 10:11 41.29761 13.97070 36970 ft 442 kts 161°
2026-04-15 10:11 41.24012 13.99974 36968 ft 442 kts 159°
2026-04-15 10:12 41.18340 14.02909 36966 ft 437 kts 160°
2026-04-15 10:12 41.13502 14.05393 36965 ft 437 kts 160°
2026-04-15 10:13 41.08440 14.07981 36965 ft 437 kts 160°
2026-04-15 10:13 41.02765 14.10877 36964 ft 437 kts 160°
2026-04-15 10:14 40.97078 14.13777 36964 ft 437 kts 159°
2026-04-15 10:14 40.91447 14.16665 36965 ft 436 kts 159°
2026-04-15 10:15 40.85779 14.19567 36964 ft 436 kts 159°
2026-04-15 10:15 40.80123 14.22444 36963 ft 435 kts 159°
2026-04-15 10:16 40.74465 14.25305 36963 ft 435 kts 160°
2026-04-15 10:16 40.68807 14.28159 36961 ft 436 kts 159°
2026-04-15 10:17 40.63084 14.31041 36962 ft 444 kts 159°
2026-04-15 10:17 40.57263 14.33977 36959 ft 450 kts 159°
2026-04-15 10:18 40.51556 14.37065 36661 ft 433 kts 158°
2026-04-15 10:18 40.48796 14.38569 36228 ft 427 kts 158°
2026-04-15 10:18 40.46092 14.40037 35632 ft 425 kts 158°
2026-04-15 10:18 40.43365 14.41515 35026 ft 423 kts 158°
2026-04-15 10:19 40.40651 14.42981 34416 ft 421 kts 158°
2026-04-15 10:19 40.37945 14.44441 33807 ft 418 kts 158°
2026-04-15 10:19 40.35258 14.45889 33094 ft 417 kts 158°
2026-04-15 10:19 40.32562 14.47340 32249 ft 419 kts 158°
2026-04-15 10:20 40.29852 14.48797 31466 ft 420 kts 158°
2026-04-15 10:20 40.27179 14.50233 31137 ft 409 kts 158°
2026-04-15 10:20 40.24553 14.51657 30885 ft 407 kts 158°
2026-04-15 10:20 40.21930 14.53080 30634 ft 409 kts 158°
2026-04-15 10:21 40.19321 14.54490 30388 ft 411 kts 158°
2026-04-15 10:21 40.16686 14.55910 30137 ft 409 kts 158°
2026-04-15 10:21 40.14060 14.57323 29886 ft 406 kts 158°
2026-04-15 10:21 40.11451 14.58724 29636 ft 405 kts 158°
2026-04-15 10:22 40.08841 14.60123 29385 ft 404 kts 158°
2026-04-15 10:22 40.06237 14.61517 29134 ft 403 kts 158°
2026-04-15 10:22 40.03641 14.62906 28883 ft 403 kts 158°
2026-04-15 10:22 40.01048 14.64292 28633 ft 402 kts 158°
2026-04-15 10:23 39.98463 14.65672 28381 ft 400 kts 158°
2026-04-15 10:23 39.95898 14.67041 28132 ft 398 kts 158°
2026-04-15 10:23 39.93338 14.68405 27880 ft 397 kts 158°
2026-04-15 10:23 39.90782 14.69767 27630 ft 396 kts 158°
2026-04-15 10:24 39.88263 14.71107 27382 ft 395 kts 158°
2026-04-15 10:24 39.85718 14.72460 27132 ft 394 kts 158°
2026-04-15 10:24 39.83184 14.73806 26882 ft 393 kts 158°
2026-04-15 10:24 39.80651 14.75151 26630 ft 392 kts 158°
2026-04-15 10:25 39.78131 14.76488 26380 ft 391 kts 158°
2026-04-15 10:25 39.75613 14.77822 26129 ft 390 kts 158°
2026-04-15 10:25 39.73096 14.79156 25879 ft 389 kts 158°
2026-04-15 10:25 39.70591 14.80481 25628 ft 388 kts 158°
2026-04-15 10:26 39.68096 14.81800 25377 ft 387 kts 158°
2026-04-15 10:26 39.65608 14.83115 25127 ft 386 kts 158°
2026-04-15 10:26 39.63123 14.84426 24876 ft 384 kts 158°
2026-04-15 10:26 39.60683 14.85714 24629 ft 383 kts 158°
2026-04-15 10:27 39.58209 14.87018 24378 ft 382 kts 158°
2026-04-15 10:27 39.55750 14.88313 24127 ft 381 kts 158°
2026-04-15 10:27 39.53296 14.89605 23876 ft 379 kts 158°
2026-04-15 10:27 39.50854 14.90889 23625 ft 377 kts 158°
2026-04-15 10:28 39.48426 14.92165 23375 ft 376 kts 158°
2026-04-15 10:28 39.46007 14.93435 23125 ft 374 kts 158°
2026-04-15 10:28 39.43600 14.94698 22874 ft 373 kts 159°
2026-04-15 10:28 39.41197 14.95958 22623 ft 371 kts 159°
2026-04-15 10:29 39.38805 14.97211 22372 ft 370 kts 159°
2026-04-15 10:29 39.36427 14.98456 22122 ft 369 kts 159°
2026-04-15 10:29 39.34055 14.99697 21872 ft 367 kts 159°
2026-04-15 10:29 39.31692 15.00932 21621 ft 365 kts 159°
2026-04-15 10:30 39.29371 15.02145 21373 ft 363 kts 159°
2026-04-15 10:30 39.27027 15.03369 21122 ft 362 kts 159°
2026-04-15 10:30 39.24699 15.04583 20872 ft 361 kts 159°
2026-04-15 10:30 39.22373 15.05795 20621 ft 359 kts 159°
2026-04-15 10:31 39.20061 15.07000 20370 ft 357 kts 159°
2026-04-15 10:31 39.17763 15.08196 20120 ft 356 kts 159°
2026-04-15 10:31 39.15468 15.09390 19869 ft 355 kts 159°
2026-04-15 10:31 39.13182 15.10578 19618 ft 353 kts 159°
2026-04-15 10:32 39.10905 15.11761 19368 ft 352 kts 159°
2026-04-15 10:32 39.08635 15.12939 19117 ft 350 kts 159°
2026-04-15 10:32 39.06378 15.14110 18865 ft 352 kts 159°
2026-04-15 10:32 39.04134 15.15274 18619 ft 350 kts 159°
2026-04-15 10:33 39.01885 15.16438 18368 ft 347 kts 159°
2026-04-15 10:33 38.99650 15.17595 18117 ft 345 kts 159°
2026-04-15 10:33 38.97428 15.18745 17867 ft 344 kts 159°
2026-04-15 10:33 38.95215 15.19889 17616 ft 342 kts 159°
2026-04-15 10:34 38.93013 15.21026 17366 ft 340 kts 159°
2026-04-15 10:34 38.90822 15.22158 17115 ft 339 kts 159°
2026-04-15 10:34 38.88639 15.23284 16865 ft 338 kts 159°
2026-04-15 10:34 38.86464 15.24405 16614 ft 336 kts 159°
2026-04-15 10:35 38.84291 15.25530 16363 ft 335 kts 159°
2026-04-15 10:35 38.82133 15.26651 16112 ft 334 kts 159°
2026-04-15 10:35 38.79985 15.27760 15862 ft 332 kts 159°
2026-04-15 10:35 38.77870 15.28849 15615 ft 331 kts 159°
2026-04-15 10:36 38.75729 15.29948 15364 ft 331 kts 159°
2026-04-15 10:36 38.73576 15.31054 15113 ft 334 kts 160°
2026-04-15 10:36 38.71420 15.32153 14863 ft 333 kts 159°
2026-04-15 10:36 38.69258 15.33262 14613 ft 334 kts 159°
2026-04-15 10:37 38.67112 15.34353 14363 ft 330 kts 159°
2026-04-15 10:37 38.64996 15.35441 14111 ft 326 kts 159°
2026-04-15 10:37 38.62900 15.36512 13861 ft 324 kts 159°
2026-04-15 10:37 38.60807 15.37582 13610 ft 322 kts 159°
2026-04-15 10:38 38.58737 15.38656 13359 ft 320 kts 157°
2026-04-15 10:38 38.56894 15.40236 13106 ft 323 kts 138°
2026-04-15 10:38 38.55615 15.42609 12856 ft 330 kts 118°
2026-04-15 10:38 38.55081 15.45491 12605 ft 340 kts 98°
2026-04-15 10:39 38.55378 15.48522 12353 ft 351 kts 78°
2026-04-15 10:39 38.56447 15.51357 12109 ft 358 kts 64°
2026-04-15 10:39 38.57635 15.54127 11858 ft 353 kts 70°
2026-04-15 10:39 38.58561 15.57009 11607 ft 348 kts 76°
2026-04-15 10:40 38.59257 15.59946 11357 ft 344 kts 80°
2026-04-15 10:40 38.59843 15.62891 11106 ft 341 kts 81°
2026-04-15 10:40 38.60428 15.65820 10855 ft 337 kts 81°
2026-04-15 10:40 38.61020 15.68703 10604 ft 334 kts 80°
2026-04-15 10:41 38.61611 15.71544 10353 ft 326 kts 80°
2026-04-15 10:41 38.62191 15.74317 10101 ft 319 kts 80°
2026-04-15 10:41 38.62642 15.77036 9938 ft 304 kts 91°
2026-04-15 10:41 38.62389 15.79593 9918 ft 280 kts 114°
2026-04-15 10:42 38.61434 15.81581 9873 ft 254 kts 137°
2026-04-15 10:42 38.59963 15.82776 9502 ft 256 kts 162°
2026-04-15 10:42 38.58195 15.82952 9215 ft 259 kts 187°
2026-04-15 10:42 38.56532 15.82055 8967 ft 265 kts 212°
2026-04-15 10:43 38.55600 15.80992 8800 ft 267 kts 220°
2026-04-15 10:43 38.54235 15.79437 8548 ft 263 kts 210°
2026-04-15 10:43 38.52631 15.78390 8307 ft 257 kts 196°
2026-04-15 10:43 38.50924 15.77777 8117 ft 253 kts 189°
2026-04-15 10:44 38.49191 15.77432 7990 ft 252 kts 186°
2026-04-15 10:44 38.47450 15.76990 7787 ft 255 kts 190°
2026-04-15 10:44 38.45724 15.76444 7582 ft 255 kts 191°
2026-04-15 10:44 38.44009 15.75871 7381 ft 254 kts 191°
2026-04-15 10:45 38.42301 15.75316 7184 ft 252 kts 191°
2026-04-15 10:45 38.40598 15.74775 6991 ft 254 kts 191°
2026-04-15 10:45 38.38879 15.74233 6793 ft 254 kts 191°
2026-04-15 10:45 38.37195 15.73707 6600 ft 251 kts 191°
2026-04-15 10:46 38.35502 15.73178 6407 ft 250 kts 191°
2026-04-15 10:46 38.33818 15.72626 6212 ft 250 kts 195°
2026-04-15 10:46 38.32348 15.71448 6023 ft 257 kts 224°
2026-04-15 10:46 38.31375 15.69483 5755 ft 270 kts 241°
2026-04-15 10:47 38.30717 15.67203 5469 ft 274 kts 249°
2026-04-15 10:47 38.30194 15.64906 5193 ft 267 kts 251°
2026-04-15 10:47 38.29704 15.62680 4935 ft 254 kts 250°
2026-04-15 10:47 38.29210 15.60585 4687 ft 240 kts 249°
2026-04-15 10:48 38.28734 15.58611 4462 ft 227 kts 250°
2026-04-15 10:48 38.28252 15.56769 4261 ft 212 kts 242°
2026-04-15 10:48 38.27287 15.55523 4025 ft 193 kts 200°
2026-04-15 10:48 38.26023 15.55356 3988 ft 176 kts 173°
2026-04-15 10:49 38.24849 15.55692 3730 ft 176 kts 162°
2026-04-15 10:49 38.23681 15.56222 3352 ft 176 kts 158°
2026-04-15 10:49 38.22566 15.56791 3137 ft 169 kts 156°
2026-04-15 10:49 38.21527 15.57328 3022 ft 157 kts 156°
2026-04-15 10:50 38.20533 15.57843 2864 ft 153 kts 155°
2026-04-15 10:50 38.19559 15.58348 2684 ft 149 kts 155°
2026-04-15 10:50 38.18611 15.58841 2509 ft 146 kts 155°
2026-04-15 10:50 38.17672 15.59329 2331 ft 146 kts 155°
2026-04-15 10:51 38.16731 15.59818 2118 ft 146 kts 156°
2026-04-15 10:51 38.15793 15.60305 1904 ft 145 kts 156°
2026-04-15 10:51 38.14866 15.60787 1692 ft 143 kts 156°
2026-04-15 10:51 38.13953 15.61272 1476 ft 142 kts 156°
2026-04-15 10:52 38.13042 15.61729 1275 ft 138 kts 157°
2026-04-15 10:52 38.12188 15.62178 1067 ft 130 kts 155°
2026-04-15 10:52 38.11356 15.62608 790 ft 129 kts 157°
2026-04-15 10:52 38.10511 15.63046 633 ft 133 kts 155°
2026-04-15 10:53 38.09663 15.63527 458 ft 132 kts 154°
2026-04-15 10:53 38.08846 15.64048 300 ft 131 kts 153°
2026-04-15 10:53 38.08029 15.64569 122 ft 131 kts 153°
2026-04-15 10:53 38.07243 15.65079 59 ft 118 kts 153°
2026-04-15 10:54 38.06726 15.65418 58 ft 37 kts 152°
2026-04-15 10:54 38.06596 15.65496 58 ft 17 kts 155°
2026-04-15 10:54 38.06521 15.65555 58 ft 11 kts 123°
2026-04-15 10:54 38.06493 15.65644 58 ft 11 kts 132°
2026-04-15 10:55 38.06436 15.65624 58 ft 10 kts 261°
2026-04-15 10:55 38.06481 15.65570 58 ft 10 kts 342°
2026-04-15 10:55 38.06558 15.65523 58 ft 17 kts 333°
2026-04-15 10:55 38.06678 15.65445 58 ft 20 kts 333°
2026-04-15 10:56 38.06808 15.65382 58 ft 19 kts 347°
2026-04-15 10:56 38.06912 15.65295 58 ft 17 kts 331°
2026-04-15 10:56 38.07010 15.65229 58 ft 15 kts 333°
2026-04-15 10:56 38.07098 15.65173 58 ft 14 kts 336°
2026-04-15 10:57 38.07179 15.65117 58 ft 13 kts 332°
2026-04-15 10:57 38.07312 15.65155 58 ft 12 kts 63°
2026-04-15 10:57 38.07342 15.65231 58 ft 8 kts 61°
2026-04-15 10:58 38.07360 15.65276 58 ft 1 kts 63°
2026-04-15 10:58 38.07364 15.65285 58 ft 4 kts 62°
2026-04-15 10:58 38.07361 15.65314 58 ft 1 kts 136°